Regional Weather Roundup
Issued by NWS

Home | Current Version | Previous Version | Graphics & Text | Print | Product List | Glossary On
Versions: 1 2 3 4 5 6 7 8 9 10 11 12 13 14 15 16 17 18 19 20 21 22 23 24 25 26 27 28 29 30 31 32 33 34 35 36 37 38 39 40 41 42 43 44 45 46 47 48 49 50
000
ASUS43 KLSX 220559
RWRMO

WEATHER SUMMARY FOR MISSOURI
NATIONAL WEATHER SERVICE SPRINGFIELD MO
100 AM CDT FRI MAY 22 2015

NOTE: "FAIR" INDICATES FEW OR NO CLOUDS BELOW 12,000 FEET WITH NO
       SIGNIFICANT WEATHER AND/OR OBSTRUCTIONS TO VISIBILITY.
       CURRENT SKY AND/OR WEATHER CONDITIONS ARE NOT AVAILABLE FOR
       CHILLICOTHE AND FARMINGTON.

MOZ001>031-035>038-043-044-053-054-220700-
...NORTHERN AND WESTERN MISSOURI...

CITY           SKY/WX    TMP DP  RH WIND       PRES   REMARKS
KANSAS CTY INT MOCLDY    52  45  77 SW7       30.23R
6HR MIN TEMP:  52; 6HR MAX TEMP:  67;

KANSAS C DTWN  CLEAR     55  46  71 SW3       30.23R
6HR MIN TEMP:  54; 6HR MAX TEMP:  68;

LEE`S SUMMIT   CLEAR     52  44  74 SW7       30.24R
6HR MIN TEMP:  51; 6HR MAX TEMP:  67; 6HR PCP: TRACE;

ST JOSEPH      MOCLDY    54  48  80 S3        30.21S
6HR MIN TEMP:  53; 6HR MAX TEMP:  69;

KIRKSVILLE     CLEAR     55  46  71 W6        30.17R
6HR MIN TEMP:  55; 6HR MAX TEMP:  68;


$$
MOZ066>068-077>081-088>096-101>105-220700-
...SOUTHWEST MISSOURI...

CITY           SKY/WX    TMP DP  RH WIND       PRES   REMARKS
SPRINGFIELD    CLEAR     47  43  86 CALM      30.23S
6HR MIN TEMP:  47; 6HR MAX TEMP:  63;

JOPLIN         CLEAR     46  45  96 CALM      30.23F FOG
6HR MIN TEMP:  45; 6HR MAX TEMP:  63;


$$
MOZ032>034-039>042-045>050-055>058-069>072-220700-
...CENTRAL MISSOURI...

CITY           SKY/WX    TMP DP  RH WIND       PRES   REMARKS
COLUMBIA       CLEAR     52  44  74 SW6       30.20R
6HR MIN TEMP:  52; 6HR MAX TEMP:  65;

JEFFERSON CITY CLEAR     50  46  86 CALM      30.20S
6HR MIN TEMP:  50; 6HR MAX TEMP:  66;

ROLLA          CLEAR     45  42  89 SW8       30.19F
6HR MIN TEMP:  44; 6HR MAX TEMP:  61; 6HR PCP: TRACE;

SEDALIA        PTCLDY    54  45  71 SW8       30.23R
6HR MIN TEMP:  54; 6HR MAX TEMP:  66;

OSAGE BEACH    PTCLDY    45  43  93 CALM      30.22S

$$
MOZ051-052-059>065-220700-
...EAST CENTRAL MISSOURI...

CITY           SKY/WX    TMP DP  RH WIND       PRES   REMARKS
ST LOUIS INTL  CLEAR     54  43  66 SW5       30.18S
6HR MIN TEMP:  54; 6HR MAX TEMP:  65;

SPIRIT OF STL  CLEAR     48  45  89 CALM      30.18S
6HR MIN TEMP:  48; 6HR MAX TEMP:  64;

ST CHARLES     CLEAR     51  46  83 SW3       30.17S
6HR MIN TEMP:  50; 6HR MAX TEMP:  66;


$$
MOZ072>076-082>087-097>100-106>115-220700-
...SOUTH CENTRAL AND SOUTHEAST MISSOURI...

CITY           SKY/WX    TMP DP  RH WIND       PRES   REMARKS
CAPE GIRARDEAU CLEAR     46  46 100 W3        30.22S
6HR MIN TEMP:  45; 6HR MAX TEMP:  60;

FARMINGTON     CLEAR     43  39  87 SW3       30.25R
6HR MIN TEMP:  43; 6HR MAX TEMP:  59;

POPLAR BLUFF   CLEAR     49  46  90 CALM      30.23S
6HR MIN TEMP:  49; 6HR MAX TEMP:  60; 6HR PCP: TRACE;

WEST PLAINS    CLEAR     44  40  85 CALM      30.24S
6HR MIN TEMP:  43; 6HR MAX TEMP:  61;


$$


USA.gov is the U.S. government's official web portal to all federal, state and local government web resources and services.